Location: Complexul Astronomic Baia Mare
(47.6577°N, 23.5639°E)
Time: 01:50:12
(UTC+03:00)

ISS - Pass Details

Date: 27 May 2017
Orbit: 400 x 408 km, 51.6° (Epoch: 26 July)

Event Time Altitude Azimuth Distance (km) Brightness Sun altitude
Rises 21:37:22 0° 229° (SW) 2,338 0.2 -4.4°
Reaches altitude 10° 21:39:29 10° 223° (SW) 1,478 -0.9 -4.7°
Maximum altitude 21:42:42 48° 148° (SSE) 546 -3.5 -5.1°
Drops below altitude 10° 21:45:55 10° 73° (ENE) 1,481 -1.3 -5.5°
Enters shadow 21:54:41 -18° 64° (ENE) 5,036 1.5 -6.6°
